User: anonymous   Login
Location: Santa Teresa Spring
(37.2333°N, 121.7000°W)
Time: 03:53:44
(UTC-07:00)
Language:

Cosmos 1633 - Orbit

View from above orbital plane
View from above orbital plane
View from above satellite
View from above satellite

Ground track
Ground track

The orbit data is extracted from the following two-line orbital elements,

1 15592U 85020A   17205.30646403 +.00001137 +00000-0 +39474-4 0  9991
2 15592 082.5389 282.1186 0014826 051.1850 309.0711 15.28581339769680
Epoch (UTC): 24 July 2017 07:21:18
Eccentricity: 0.0014826
inclination: 82.5389°
perigee height: 470 km
apogee height: 490 km
right ascension of ascending node: 282.1186°
argument of perigee: 51.1850°
revolutions per day: 15.28581339
mean anomaly at epoch: 309.0711°
orbit number at epoch: 76968

The dashed part of the orbit path shows where the satellite is in the earth's shadow,  

DLR